Regional Weather Roundup
Issued by NWS

Home | Current Version | Previous Version | Graphics & Text | Print | Product List | Glossary Off
Versions: 1 2 3 4 5 6 7 8 9 10 11 12 13 14 15 16 17 18 19 20 21 22 23 24 25 26 27 28 29 30 31 32 33 34 35 36 37 38 39 40 41 42 43 44 45 46 47 48 49 50

000
ASUS43 KDMX 041607
RWRIA

WEATHER ROUNDUP FOR IOWA
NATIONAL WEATHER SERVICE DES MOINES IA
1100 AM CDT MON MAY 04 2015

NOTE: "FAIR" INDICATES FEW OR NO CLOUDS BELOW 12,000 FEET WITH NO
SIGNIFICANT WEATHER AND/OR OBSTRUCTIONS TO VISIBILITY.

* - THESE STATIONS ARE NOT NWS STATIONS...THUS NOT UNDER NWS
QUALITY CONTROL.  THEY ALSO DO NOT REPORT WEATHER SUCH
AS PRECIPITATION OR FOG.

IAZ001>003-012>014-020>022-031>034-043>046-041700-
   NORTHWEST IOWA

CITY           SKY/WX    TMP DP  RH WIND       PRES   REMARKS
CARROLL *      SUNNY     64  46  52 NE21G30   30.10S
CHEROKEE *     MOSUNNY   66  36  32 E18       30.14R
DENISON *      SUNNY     63  46  55 NE18G28   30.08R
LE MARS *      MOSUNNY   66  34  30 NE12G25   30.15R
ORANGE CITY *  SUNNY     64  32  29 E14G21    30.14S
SHELDON *      SUNNY     66  39  37 E17G25    30.15S
SIOUX CITY     MOSUNNY   67  37  33 E18G26    30.12S
SPENCER        MOSUNNY   65  39  38 NE21      30.16R
STORM LAKE *   SUNNY     63  43  48 NE22      30.14S
$$

IAZ055>058-069>071-079>083-090>094-041700-
   SOUTHWEST IOWA

CITY           SKY/WX    TMP DP  RH WIND       PRES   REMARKS
ATLANTIC *     SUNNY     66  57  72 E13G22    30.07R
AUDUBON *      SUNNY     64  55  72 NE17      30.08S
CLARINDA *     PTSUNNY   64  59  82 N13       30.09R
COUNCIL BLFS * SUNNY     63  55  77 N9        30.10S
CRESTON *      SUNNY     64  61  88 SE9       30.06R
HARLAN  *      SUNNY     66  55  68 NE16G25   30.11R
LAMONI         CLOUDY    71  61  70 NE9       30.05R
RED OAK *      CLOUDY    61  57  88 N7        30.10R
SHENANDOAH *   LGT RAIN  63  59  88 NE8       30.09R
$$

IAZ047>049-059>061-072>074-084-041700-
   CENTRAL IOWA

CITY           SKY/WX    TMP DP  RH WIND       PRES   REMARKS
AMES           PTSUNNY   66  57  72 NE12      30.09R
ANKENY *       CLOUDY    70  59  68 NE13G20   30.08R
CHARITON *     SUNNY     70  61  73 N9        30.06R
DES MOINES     CLOUDY    68  58  70 NE10      30.08R
GRINNELL*      CLOUDY    66  59  77 E12       30.09R
KNOXVILLE *    SUNNY     68  59  73 CALM      30.06R
MARSHALLTOWN   CLOUDY    65  60  84 NE13      30.09R
PELLA *        PTSUNNY   72  63  73 E3        30.08R
PERRY *          N/A     66  57  72 NE12      30.09R
$$

IAZ004>006-015-016-023>025-035-036-041700-
   NORTH CENTRAL IOWA

CITY           SKY/WX    TMP DP  RH WIND       PRES   REMARKS
ALGONA *       SUNNY     64  43  45 NE16G23   30.16R
CLARION *      SUNNY     64  46  52 NE22G28   30.13R
ESTHERVILLE    PTSUNNY   64  32  30 E21G28    30.16R
FORT DODGE *   PTSUNNY   64  46  52 NE14G23   30.13R
MASON CITY     PTSUNNY   63  44  50 NE21G29   30.15R
FOREST CITY *  SUNNY     61  37  41 NE17G24   30.16R
IOWA FALLS *     N/A     64  54  68 NE16G22   30.12R
$$

IAZ007>011-017>019-026>030-037>042-050>054-066-041700-
   NORTHEAST IOWA

CITY           SKY/WX    TMP DP  RH WIND       PRES   REMARKS
CEDAR RAPIDS   CLOUDY    66  61  84 E7        30.09R
CHARLES CITY * SUNNY     63  46  55 NE17G24   30.14R
CLINTON *      CLOUDY    64  59  82 NE7       30.13R
DECORAH *      SUNNY     63  43  48 NE12G18   30.12R
DUBUQUE        PTSUNNY   66  58  75 NE7       30.10R
MONTICELLO *   PTSUNNY   66  63  88 NE7G13    30.10R
OELWEIN *      CLOUDY    63  57  82 NE15      30.12R
WATERLOO       PTSUNNY   66  58  75 NE14      30.11R
$$

IAZ064-065-067-068-078-041700-
   EAST CENTRAL IOWA

CITY           SKY/WX    TMP DP  RH WIND       PRES   REMARKS
DAVENPORT      CLOUDY    67  61  81 NE8       30.10R
IOWA CITY      CLOUDY    66  60  81 NE7       30.10R
MT. PLEASANT * PTSUNNY   70  61  73 S12       30.06S
MUSCATINE *    PTSUNNY   70  63  78 N6        30.08R
QUAD CITIES    PTSUNNY   71  60  68 VRB3      30.08R
$$

IAZ062-063-075>077-085>089-095>099-041700-
   SOUTHEAST IOWA

CITY           SKY/WX    TMP DP  RH WIND       PRES   REMARKS
BURLINGTON     CLOUDY    67  63  87 S9        30.06R
FAIRFIELD *    SUNNY     73  61  64 SW10      30.06R
FORT MADISON * PTSUNNY   70  61  73 S9        30.07S
KEOKUK *       CLOUDY    70  61  73 S5        30.06R
OSKALOOSA *      N/A     73  59  60 SW5       30.06R
CENTERVILLE *  SUNNY     73  64  73 W3        30.07R
OTTUMWA        PTSUNNY   74  61  63 SW9       30.05R
WASHINGTON *   CLOUDY    72  66  83 VRB6G13   30.07R
$$

ABBREVIATIONS USED IN REMARKS
   TC - TEMPERATURES IN CELSIUS
  WCI - WIND CHILL INDEX
   HX - HEAT INDEX
  VSB - VISIBILITY
$$



USA.gov is the U.S. government's official web portal to all federal, state and local government web resources and services.